Вернуться в каталог

ATLAS AGENA D R/B

АктивенGEO
NORAD 4511·ROCKET BODY·🇺🇸 United States

Запущен Jun 19, 1970 с Cape Canaveral Space Force Station

Loading…

TLE

СвежийSource: Space-Track

Эпоха: Sep 13, 2026, 14:27 UTC

1 04511U 70046B   26256.60208619  .00000010  00000-0  00000-0 0  9992
2 04511   1.9205  82.9536 0030709 310.8566  49.6236  1.00439986 26447

Отслеживайте ATLAS AGENA D R/B в реальном времени с AllMySat

Download on the App Store